[[{"header":{"parameterUnit":"m.s-1","parameterCategory":1,"la1":30.2991,"la2":30.254,"lo1":-89.0895,"lo2":-89.0444,"dy":0.0017,"dx":0.0017,"nx":28,"ny":28,"refTime":"2023-08-25T09:00:00:Z","depth":0,"parameterNumber":2,"parameterNumberName":"U-component_of_WINDS"},"data":[0,0,0,0,0,0,0,0,0,0,0,0,0,0,0,0,0,0,0,0,0,0,0,0,0,0,0,0,0,0,0,0,0,0,0,0,0,0,0,0,0,0,0,0,0,0,0,0,0,0,0,0,0,0,0,0,0,0,1.0407,1.0409,0,1.0636,1.0638,1.0641,1.0627,1.0623,1.062,1.0617,1.086,1.087,1.0879,0,0,0,0,0,0,0,0,0,0,0,0,0,0.9963,0.9972,1.0406,1.0409,1.0412,1.0635,1.0638,1.0642,1.0627,1.0623,1.0619,1.0615,1.0857,1.0869,1.088,0,0,0,0,0,0,0,0,0,0,0,0,0,1.0171,0.9974,1.0406,1.0432,1.0436,1.0635,1.0639,1.0643,1.0628,1.0623,1.0618,1.0613,1.0853,1.0867,1.0882,1.1072,0,0,1.0926,1.0932,0,0,0,0,0,0,0,0,1.0159,1.0187,1.0425,1.043,1.0436,1.0597,1.0572,1.0787,1.0629,1.0556,1.0617,1.0611,1.0778,1.0798,1.0852,1.1084,1.1094,1.0927,1.0936,1.0942,1.0946,0,0,0,0,0,0,0,1.0145,1.0177,1.0497,1.0428,1.0435,1.0434,1.0458,1.0612,1.0693,1.0562,1.0561,1.0588,1.078,1.0838,1.0858,1.1098,1.0927,1.094,1.0948,1.0954,1.1497,1.1502,0,0,0,0,0,0,1.0123,1.0165,1.049,1.0504,1.0282,1.0446,1.0473,1.0551,1.0691,1.0707,1.0592,1.0586,1.0816,1.0841,1.0866,1.1099,1.0942,1.0956,1.0964,1.1491,1.1498,1.1504,0,0,0,0,0,0,1.0114,1.0153,1.0481,1.0335,1.0376,1.0459,1.0547,1.0558,1.0617,1.0713,1.0728,1.0637,1.0813,1.0846,1.1021,1.1107,1.0962,1.0975,1.1484,1.1493,1.1501,1.1564,0,0,0,0,0,0,1.0101,1.0149,1.0221,1.0336,1.0384,1.0629,1.0552,1.0566,1.064,1.0635,1.076,1.0776,1.0812,1.0999,1.1035,1.1124,1.0986,1.1477,1.1488,1.1499,1.1555,1.1574,1.159,0,0,0,0,0,1.0086,1.0231,1.0224,1.0264,1.0475,1.0634,1.0662,1.0698,1.0647,1.0721,1.0783,1.0772,1.1091,1.1017,1.1057,1.1152,1.1472,1.1485,1.1498,1.1547,1.157,1.159,0,0,0,0,0,0,1.0127,1.0247,1.0241,1.0428,1.052,1.0631,1.0725,1.0721,1.0833,1.0824,1.0866,1.0895,1.107,1.1129,1.1044,1.1344,1.1275,1.1297,1.1299,1.1322,1.1339,1.1322,1.0998,0,0,0,0,0,1.0157,1.0274,1.0373,1.0529,1.0575,1.0642,1.0713,1.0732,1.0832,1.0872,1.0947,1.1045,1.1168,1.1248,1.1367,1.1563,1.1591,1.1648,1.1666,1.168,1.1699,1.1807,1.1834,1.1547,1.1547,1.1547,0,0,1.0222,1.0302,1.0374,1.0539,1.0613,1.0735,1.0676,1.0807,1.0899,1.0893,1.1061,1.1119,1.1233,1.1419,1.1505,1.1473,1.1784,1.1696,1.1707,1.1718,1.1823,1.185,1.1874,1.1556,1.1554,1.1553,0,0,1.0403,1.0474,1.0612,1.0686,1.0798,1.0841,1.0874,1.0986,1.1024,1.1192,1.119,1.1301,1.1511,1.1592,1.166,1.187,1.1864,1.1908,1.2001,1.2106,1.2129,1.2149,1.2224,1.2251,1.1926,1.1926,1.1926,0,1.047,1.0651,1.0683,1.0816,1.0889,1.0885,1.1026,1.1098,1.1244,1.1296,1.1257,1.152,1.1597,1.1801,1.1852,1.1908,1.1948,1.1894,1.2122,1.2143,1.2162,1.2235,1.2263,1.1931,1.193,1.193,1.1929,0,1.0729,1.0855,1.0953,1.109,1.1175,1.131,1.1365,1.1447,1.1459,1.1507,1.168,1.177,1.1907,1.1957,1.1971,1.2164,1.2141,1.2112,1.2044,1.2194,1.2262,1.229,1.1937,1.1935,1.1934,1.1933,0,0,1.0943,1.1095,1.1131,1.1193,1.1315,1.1415,1.1551,1.1681,1.1751,1.1852,1.1968,1.2145,1.2119,1.2197,1.222,1.2312,1.2473,1.2273,1.2276,1.2307,1.2692,1.2712,1.2744,1.2469,1.2474,1.2479,1.2682,0,1.1137,1.1375,1.1407,1.1619,1.1736,1.1734,1.1853,1.1942,1.199,1.2099,1.2153,1.2278,1.2234,1.228,1.2371,1.2434,1.2551,1.242,1.2579,1.2585,1.2551,1.278,1.2803,1.299,1.2709,1.2714,1.2717,0,1.1394,1.1498,1.1721,1.1827,1.1877,1.1983,1.2105,1.2208,1.2309,1.2338,1.2424,1.2436,1.2579,1.2504,1.2702,1.2612,1.268,1.272,1.2729,1.2746,1.266,1.2803,1.3051,1.3079,1.276,1.2756,1.2753,0,1.1528,1.1725,1.1883,1.1937,1.2064,1.2138,1.2196,1.2292,1.2368,1.2475,1.2525,1.2649,1.2717,1.2814,1.2859,1.28,1.3055,1.2984,1.3084,1.3083,1.3139,1.3135,1.3401,1.3182,1.3181,1.3181,1.318,0,1.1741,1.1878,1.1945,1.2043,1.2196,1.2232,1.2384,1.2439,1.2525,1.2634,1.2641,1.2744,1.2798,1.291,1.2947,1.3106,1.3137,1.3165,1.3173,1.3165,1.3161,1.321,1.3198,1.3188,1.3186,1.3185,1.3184,0,1.1917,1.1968,1.214,1.2245,1.2275,1.2383,1.2475,1.2571,1.2617,1.2756,1.2791,1.2866,1.2998,1.3052,1.3215,1.324,1.3422,1.3421,1.3387,1.339,1.3487,1.3477,1.3795,1.3839,1.3589,1.3592,1.3594,0,1.205,1.2154,1.227,1.2342,1.24,1.2518,1.2594,1.2635,1.2715,1.2838,1.292,1.3051,1.3158,1.3369,1.344,1.3564,1.3566,1.3669,1.3585,1.3573,1.3568,1.3561,1.3572,1.3684,1.3687,1.3689,1.369,0,1.228,1.2299,1.2408,1.2526,1.2616,1.2712,1.2805,1.2865,1.292,1.301,1.3144,1.3226,1.3391,1.3522,1.365,1.3712,1.3712,1.3716,1.3746,1.3738,1.3714,1.3729,1.3429,1.3709,1.3707,1.3706,1.3705,1.3704,1.2438,1.2531,1.2626,1.2747,1.2821,1.2908,1.3002,1.306,1.3171,1.3306,1.3324,1.3467,1.3566,1.3738,1.3804,1.3918,1.3892,1.3936,1.3947,1.3957,1.3963,1.3695,1.3942,1.3942,1.3941,1.3941,1.3941,0,1.2669,1.2729,1.284,1.2969,1.3064,1.3052,1.3155,1.3236,1.3361,1.3452,1.3557,1.371,1.3837,1.3916,1.4044,1.412,1.4123,1.4152,1.4147,1.4161,1.3979,1.394,1.4147,1.4147,1.4147,1.4147,1.4147,1.4147,1.2799,1.2955,1.2986,1.3178,1.3239,1.3376,1.3436,1.3517,1.359,1.3759,1.3863,1.3913,1.4001,1.4134,1.425,1.4271,1.4318,1.4349,1.4367,1.4196,1.4174,1.4154,1.4118,1.4359,1.4359,1.454,1.4542,1.4543]},{"header":{"parameterUnit":"m.s-1","parameterCategory":1,"la1":30.2991,"la2":30.254,"lo1":-89.0895,"lo2":-89.0444,"dy":0.0017,"dx":0.0017,"nx":28,"ny":28,"refTime":"2023-08-25T09:00:00:Z","depth":0,"parameterNumber":3,"parameterNumberName":"V-component_of_WINDS"},"data":[0,0,0,0,0,0,0,0,0,0,0,0,0,0,0,0,0,0,0,0,0,0,0,0,0,0,0,0,0,0,0,0,0,0,0,0,0,0,0,0,0,0,0,0,0,0,0,0,0,0,0,0,0,0,0,0,0,0,2.0282,2.0283,0,2.038,2.0381,2.0382,2.0299,2.0296,2.0292,2.0289,2.0389,2.0394,2.04,0,0,0,0,0,0,0,0,0,0,0,0,0,2.0018,2.0024,2.0281,2.0283,2.0284,2.0379,2.0381,2.0382,2.03,2.0295,2.0291,2.0287,2.0387,2.0394,2.0401,0,0,0,0,0,0,0,0,0,0,0,0,0,2.0126,2.0025,2.0281,2.0254,2.0253,2.0379,2.0381,2.0382,2.03,2.0295,2.029,2.0285,2.0384,2.0393,2.0402,2.056,0,0,2.0429,2.0432,0,0,0,0,0,0,0,0,2.012,2.0136,2.0257,2.0256,2.0255,2.0322,2.0324,2.0442,2.0302,2.0282,2.0289,2.0283,2.0371,2.038,2.041,2.0564,2.0569,2.0429,2.0435,2.0439,2.0441,0,0,0,0,0,0,0,2.0113,2.0131,2.032,2.0259,2.0258,2.0236,2.0245,2.0346,2.0354,2.0284,2.0278,2.0291,2.0369,2.0402,2.0412,2.057,2.0429,2.0437,2.0442,2.0446,2.085,2.0856,0,0,0,0,0,0,2.0108,2.0126,2.0317,2.0323,2.0173,2.0245,2.0255,2.0306,2.0353,2.0355,2.0295,2.0286,2.0389,2.0401,2.0415,2.0597,2.0438,2.0447,2.0452,2.0845,2.0852,2.0858,0,0,0,0,0,0,2.0103,2.0126,2.0313,2.0223,2.0245,2.0255,2.0312,2.031,2.0343,2.0361,2.0362,2.0327,2.0386,2.0402,2.0522,2.0599,2.0451,2.0459,2.0839,2.0847,2.0855,2.0966,0,0,0,0,0,0,2.0096,2.0125,2.0187,2.0225,2.025,2.0421,2.0317,2.0316,2.0358,2.0348,2.0392,2.0394,2.0383,2.051,2.0531,2.0609,2.0466,2.0832,2.0842,2.0852,2.0956,2.0977,2.0996,0,0,0,0,0,2.0087,2.0216,2.019,2.0214,2.0327,2.0426,2.044,2.0425,2.0365,2.0425,2.0436,2.0393,2.0588,2.0523,2.0546,2.0628,2.0827,2.0839,2.0851,2.0947,2.0973,2.0995,0,0,0,0,0,0,2.0188,2.0221,2.0193,2.0338,2.0379,2.0412,2.0488,2.0454,2.0514,2.0502,2.0479,2.049,2.0615,2.0634,2.056,2.0779,2.0697,2.0715,2.0762,2.0787,2.0807,2.0798,2.0473,0,0,0,0,0,2.0227,2.0305,2.0329,2.0455,2.0477,2.0479,2.0521,2.0505,2.0547,2.0565,2.0585,2.0627,2.0696,2.0743,2.081,2.0958,2.0963,2.1026,2.1046,2.1062,2.1076,2.115,2.1176,2.0898,2.0898,2.0898,0,0,2.0309,2.0336,2.0387,2.0476,2.0506,2.0584,2.0494,2.0583,2.064,2.0578,2.0691,2.0707,2.0752,2.0885,2.0945,2.0905,2.1154,2.1078,2.1091,2.1096,2.1165,2.1191,2.1214,2.0906,2.0905,2.0903,0,0,2.0497,2.0528,2.0632,2.0664,2.0709,2.0709,2.0734,2.0771,2.0778,2.0891,2.0844,2.0911,2.1034,2.1066,2.1098,2.1292,2.1252,2.1314,2.1418,2.1489,2.1511,2.153,2.1594,2.1618,2.1329,2.133,2.133,0,2.0593,2.071,2.0691,2.0781,2.0819,2.0764,2.0868,2.0899,2.0965,2.0991,2.0945,2.1094,2.1121,2.1257,2.1304,2.1334,2.1358,2.1308,2.151,2.1529,2.1546,2.1607,2.1631,2.1336,2.1336,2.1335,2.1334,0,2.0822,2.0904,2.0983,2.1044,2.1092,2.1189,2.1181,2.1231,2.121,2.1213,2.1325,2.1355,2.1423,2.1455,2.1437,2.1588,2.156,2.1513,2.143,2.158,2.1636,2.1659,2.1346,2.1344,2.1342,2.134,0,0,2.1079,2.1124,2.1153,2.1177,2.1222,2.1284,2.1376,2.1441,2.1481,2.1528,2.1601,2.1704,2.1658,2.1695,2.1679,2.1743,2.1886,2.1686,2.1687,2.1718,2.2047,2.2079,2.2107,2.1861,2.1866,2.1869,2.2042,0,2.1264,2.1423,2.1406,2.1557,2.1628,2.1576,2.1655,2.1689,2.1694,2.1754,2.1759,2.183,2.1768,2.1788,2.1849,2.1856,2.1952,2.1844,2.1926,2.1929,2.1912,2.2137,2.2173,2.2334,2.2064,2.2068,2.2071,0,2.1502,2.1553,2.171,2.1737,2.1767,2.1839,2.1893,2.1953,2.1989,2.1987,2.2026,2.1997,2.2086,2.2003,2.2122,2.2049,2.2082,2.209,2.2096,2.2099,2.2006,2.2142,2.2386,2.2408,2.2106,2.2103,2.2101,0,2.1666,2.1774,2.188,2.1904,2.194,2.199,2.2007,2.2038,2.2076,2.2124,2.2148,2.2207,2.2238,2.2282,2.2269,2.2211,2.2389,2.2307,2.2387,2.2387,2.2424,2.2422,2.2672,2.2453,2.2453,2.2452,2.2452,0,2.1872,2.1969,2.1953,2.2018,2.2124,2.2102,2.2206,2.2217,2.2244,2.2307,2.2267,2.2328,2.2308,2.2367,2.2358,2.2454,2.247,2.2469,2.2464,2.247,2.2469,2.2488,2.2475,2.2459,2.2457,2.2456,2.2455,0,2.2072,2.2066,2.2177,2.22,2.2208,2.2284,2.2303,2.2362,2.2362,2.2443,2.2461,2.2461,2.2528,2.2519,2.2595,2.2588,2.2706,2.2691,2.2694,2.2688,2.2767,2.2758,2.3035,2.3067,2.2832,2.2834,2.2836,0,2.2202,2.2275,2.2304,2.2343,2.2362,2.2427,2.2464,2.2445,2.2485,2.2528,2.2581,2.2644,2.2692,2.2801,2.2806,2.2862,2.2844,2.2938,2.2853,2.2854,2.2839,2.2833,2.2838,2.2953,2.2956,2.2958,2.296,0,2.2431,2.2423,2.2479,2.2531,2.2576,2.2618,2.2655,2.2689,2.2672,2.2719,2.2785,2.2823,2.2897,2.2958,2.3009,2.3025,2.2988,2.2987,2.3007,2.3012,2.3008,2.3005,2.2734,2.298,2.2978,2.2977,2.2975,2.2975,2.2597,2.2656,2.2684,2.2745,2.277,2.2804,2.2858,2.2864,2.2919,2.2976,2.2962,2.3035,2.3064,2.3129,2.315,2.3205,2.3171,2.3202,2.3209,2.3216,2.3222,2.3002,2.3215,2.3215,2.3214,2.3214,2.3213,0,2.2819,2.2833,2.2889,2.294,2.2987,2.2948,2.2986,2.3027,2.3092,2.3122,2.3169,2.3242,2.33,2.3309,2.3362,2.3405,2.3389,2.3419,2.3414,2.3416,2.3253,2.3227,2.343,2.343,2.343,2.343,2.343,2.343,2.294,2.3035,2.303,2.3136,2.3149,2.322,2.3244,2.3273,2.3296,2.3379,2.3426,2.3431,2.3451,2.3505,2.3554,2.3555,2.3574,2.361,2.3604,2.3451,2.3429,2.3408,2.3383,2.3616,2.3616,2.3762,2.3763,2.3764]}]]